Date,TemperatureHighF,TemperatureAvgF,TemperatureLowF,DewpointHighF,DewpointAvgF,DewpointLowF,HumidityHigh,HumidityAvg,HumidityLow,PressureMaxIn,PressureMinIn,WindSpeedMaxMPH,WindSpeedAvgMPH,GustSpeedMaxMPH,PrecipitationSumIn
2013-11-1,69,65,62,65,61,57,95,88,77,29.87,29.56,28,15,42,0.01
2013-11-2,63,58,56,59,55,51,93,88,76,29.71,29.59,14,3,16,0.06
2013-11-3,58,48,40,50,42,28,93,80,56,30.36,29.70,25,14,31,0.00
2013-11-4,42,40,38,34,31,29,80,70,61,30.69,30.36,21,12,28,0.00
2013-11-5,48,43,38,38,35,32,90,74,66,30.69,30.54,15,4,18,0.00
2013-11-6,57,51,41,54,46,38,94,86,71,30.53,30.10,12,3,17,0.00
2013-11-7,63,57,47,62,55,39,96,91,75,30.09,29.68,19,11,28,0.78
2013-11-8,48,44,41,39,31,25,75,59,48,30.11,29.81,23,13,36,0.00
2013-11-9,46,42,39,38,29,24,76,61,48,30.22,30.09,19,8,25,0.00
2013-11-10,56,52,46,47,42,37,79,69,61,30.07,29.74,28,9,33,0.05
2013-11-11,54,48,43,45,35,30,72,63,49,30.10,29.89,26,12,37,0.00
2013-11-12,55,40,30,47,32,21,96,76,57,30.19,29.89,24,12,32,0.01
2013-11-13,37,33,29,23,20,16,73,59,45,30.27,30.17,21,11,27,0.00
2013-11-14,51,46,36,37,33,23,77,62,49,30.21,30.07,26,12,31,0.00
2013-11-15,58,53,51,49,42,33,86,67,48,30.23,30.16,19,8,24,0.00
2013-11-16,58,51,42,47,42,33,95,73,45,30.33,30.22,12,3,13,0.00
2013-11-17,60,53,43,59,51,42,97,92,65,30.33,29.88,13,5,21,0.12
2013-11-18,62,59,54,62,53,39,98,82,56,29.87,29.59,26,11,33,0.03
2013-11-19,53,43,36,40,27,-100,66,54,46,30.27,29.68,24,13,31,0.00
2013-11-20,40,36,32,27,22,19,68,57,45,30.60,30.28,21,12,24,0.00
2013-11-21,45,40,34,38,33,26,87,74,59,30.62,30.41,12,3,14,0.00
2013-11-22,54,50,43,53,47,37,95,90,79,30.40,29.83,12,4,20,0.14
2013-11-23,52,45,35,50,31,19,95,61,36,29.89,29.78,23,11,36,0.00
2013-11-24,34,27,24,21,11,2,62,51,32,30.19,29.80,37,19,47,0.00
2013-11-25,40,28,22,32,11,2,77,52,29,30.38,30.20,25,10,34,0.00
2013-11-26,48,44,41,46,36,32,95,76,65,30.34,30.04,15,6,20,0.09
2013-11-27,62,54,40,62,53,36,99,96,84,30.03,29.16,37,13,43,0.92
2013-11-28,40,34,30,35,22,13,83,61,45,30.45,29.51,23,13,31,0.00
2013-11-29,35,32,29,20,17,11,62,55,46,30.73,30.45,18,8,21,0.00
2013-11-30,38,32,26,30,23,14,83,69,56,30.77,30.47,16,6,20,0.00